This demonstration page uses our WeatherBlox Daily Observations layout. Learn more.

Left ArrowRight Arrow

Hourly Observations for January 28, 2020

Temp ( °F °C ) Dew Point ( °F °C ) Humidity (%) Winds ( mph kmh ) Pressure ( in mb ) Visibility ( mi km ) Precip ( " mm )
12:53 am 00:53 Cloudy 33 0.6 30 -1.1 89 89 WNW 6 9 30.07 1018 7 11 0.00 0.00
1:00 am 01:00 Cloudy 33 0.6 30 -1.1 89 89 WNW 5 7 30.08 1019 7 11 0.00 0.00
1:53 am 01:53 Cloudy 33 0.6 30 -1.1 89 89 Calm 30.06 1018 7 11 0.00 0.00
2:53 am 02:53 Cloudy 33 0.6 30 -1.1 89 89 Calm 30.08 1019 8 13 0.00 0.00
3:53 am 03:53 Cloudy 33 0.6 30 -1.1 89 89 W 3 6 30.08 1019 7 11 0.00 0.00
4:53 am 04:53 Cloudy 33 0.6 30 -1.1 89 89 W 3 6 30.08 1019 7 11 0.00 0.00
5:53 am 05:53 Cloudy 33 0.6 30 -1.1 89 89 Calm 30.08 1019 7 11 0.00 0.00
6:53 am 06:53 Cloudy with Mist and Fog 33 0.6 30 -1.1 89 89 W 3 6 30.09 1019 6 10 0.00 0.00
7:22 am 07:22 Cloudy with Mist and Fog 33 0.6 30 -1.1 89 89 WSW 3 6 30.11 1020 6 10 0.00 0.00
7:53 am 07:53 Cloudy with Mist and Fog 33 0.6 30 -1.1 89 89 Calm 30.10 1019 6 10 0.00 0.00
8:53 am 08:53 Cloudy with Mist and Fog 33 0.6 30 -1.1 89 89 WSW 3 6 30.12 1020 5 8 0.00 0.00
9:53 am 09:53 Cloudy with Mist and Fog 34 1.1 30 -1.1 85 85 VRB 3 6 30.14 1021 5 8 0.00 0.00
10:33 am 10:33 Cloudy with Mist and Fog 34 1.1 30 -1.1 85 85 W 3 6 30.15 1021 4 6 0.00 0.00
10:53 am 10:53 Cloudy with Mist and Fog 34 1.1 30 -1.1 85 85 W 5 7 30.14 1021 5 8 0.00 0.00
11:17 am 11:17 Cloudy with Mist and Fog 34 1.1 31 -0.6 89 89 W 5 7 30.15 1021 4 6 0.00 0.00
11:40 am 11:40 Cloudy with Mist and Fog 34 1.1 31 -0.6 89 89 W 5 7 30.15 1021 5 8 0.00 0.00
11:53 am 11:53 Cloudy with Mist and Fog 34 1.1 31 -0.6 89 89 W 5 7 30.14 1021 4 6 0.00 0.00
12:53 pm 12:53 Cloudy 35 1.7 29 -1.7 78 78 WNW 5 7 30.11 1020 10 16 0.00 0.00
1:53 pm 13:53 Cloudy 35 1.7 29 -1.7 78 78 W 5 7 30.09 1019 10 16 0.00 0.00
2:53 pm 14:53 Cloudy 35 1.7 28 -2.2 76 76 WSW 3 6 30.09 1019 10 16 0.00 0.00
3:53 pm 15:53 Cloudy 35 1.7 28 -2.2 76 76 WSW 6 9 30.09 1019 10 16 0.00 0.00
4:53 pm 16:53 Cloudy 35 1.7 28 -2.2 76 76 NW 6 9 30.11 1020 10 16 0.00 0.00
5:53 pm 17:53 Cloudy 35 1.7 28 -2.2 76 76 W 3 6 30.13 1020 10 16 0.00 0.00
6:53 pm 18:53 Cloudy with Light Rain 34 1.1 30 -1.1 85 85 Calm 30.12 1020 8 13 0.00 0.00
7:53 pm 19:53 Cloudy 33 0.6 30 -1.1 89 89 Calm 30.13 1020 10 16 0.00 0.00
8:53 pm 20:53 Cloudy 33 0.6 31 -0.6 92 92 Calm 30.14 1021 9 14 0.00 0.00
9:53 pm 21:53 Cloudy 33 0.6 31 -0.6 92 92 Calm 30.13 1020 8 13 0.00 0.00
10:53 pm 22:53 Cloudy 33 0.6 31 -0.6 92 92 Calm 30.14 1021 8 13 0.00 0.00
11:53 pm 23:53 Cloudy 34 1.1 30 -1.1 85 85 NNW 3 6 30.14 1021 9 14 0.00 0.00

Powered by AerisWeather